299  
SXUS52 KTAE 181218  
OSOTAE  
OSOTAE  
NORTH FLORIDA/SOUTH ALABAMA/SOUTHWEST GEORGIA WEATHER ROUNDUP  
NATIONAL WEATHER SERVICE TALLAHASSEE FLORIDA  
800 AM EDT WED JUL 18 2018  
 
NOTE: "FAIR" INDICATES FEW OR NO CLOUDS BELOW 12,000 FEET WITH NO  
SIGNIFICANT WEATHER AND/OR OBSTRUCTIONS TO VISIBILITY.  
 
!FLZ017-115-028-034-025-181300   
..NORTH FLORIDA
 
 
 
CITY SKY/WX TMP DP RH WIND PRES REMARKS  
TALLAHASSEE FAIR 77 75 93 W3 29.99S  
APALACHICOLA FAIR 79 78 97 W5 30.00R  
PERRY FAIR 78 75 91 CALM 30.01R  
CROSS CITY FAIR 79 79 99 CALM 30.01R  
JACKSONVILLE PTSUNNY 78 77 96 SW6 30.00R  

 
 
!FLZ112-006-005-002-011-181300   
..FLORIDA PANHANDLE
 
 
 
CITY SKY/WX TMP DP RH WIND PRES REMARKS  
MARIANNA CLOUDY 76 75 97 W6 29.99R  
BONIFAY NOT AVBL  
PANAMA CITY NW FAIR 77 74 90 CALM 29.99R  
TYNDALL AFB FAIR 79 76 92 NW7 29.99R  
TYND DRONE APT PTSUNNY 79 75 89 NW3 29.99R  
DE FUNIAK SPR FAIR 74 73 95 NW6 30.00S  
EGLIN AFB PTSUNNY 77 73 88 NW7 29.98S  
DESTIN PTSUNNY 78 75 90 NW10 29.98S  
HURLBURT PTSUNNY 76 73 90 N10 29.97S  
CRESTVIEW CLOUDY 76 73 91 NW6 30.00S  
PENSACOLA CLOUDY 78 74 87 N8 29.99R  

 
 
!ALZ063-066-181300   
..SOUTH ALABAMA
 
 
 
CITY SKY/WX TMP DP RH WIND PRES REMARKS  
DOTHAN FOG 76 73 91 W6 30.03R VSB 1  
OZARK CAIRNS CLOUDY 75 74 97 SW3 29.99S FOG  
FT RUCKER HELI CLOUDY 75 74 96 W5 29.99R  
RUCKER HELI 3 CLOUDY 75 74 97 W3 29.99S  
RUCKER HELI 2 CLOUDY 74 74 97 CALM 29.98S  
FLORALA APT CLOUDY 75 72 90 CALM 30.02R  
ANDALUSIA CLOUDY 78 73 84 VRB3 30.00R  
TROY FOG 73 72 96 W3 30.00S VSB 1/4  
EUFALA CLOUDY 75 75 100 CALM 29.98S FOG  
MOBILE PTSUNNY 76 75 97 CALM 30.01S  

 
 
!GAZ120>161-181300   
..SOUTHWEST AND SOUTH CENTRAL GEORGIA
 
 
 
CITY SKY/WX TMP DP RH WIND PRES REMARKS  
THOMASVILLE FAIR 75 73 94 W3 30.01S  
BAINBRIDGE FAIR 79 73 83 W3 30.00R  
MOODY AFB FAIR 77 75 93 W7 29.99R  
VALDOSTA FAIR 77 76 96 VRB3 30.00R  
MOULTRIE FAIR 77 73 88 SW3 30.01R  
BLAKELY FAIR 73 72 94 CALM 29.99S  
ALBANY FAIR 77 74 90 SW3 30.01R  
TIFTON FAIR N/A N/A N/A SW5 29.99S  
FITZGERALD FAIR N/A N/A N/A SW3 30.01S  
CORDELE CLOUDY 75 74 96 W3 30.00R  
AMERICUS FAIR 73 68 83 SW3 30.01R  
HOMERVILLE FAIR 77 73 88 SW8 30.01R  

 
 
!GMZ750-755-770-775-181300   
..COASTAL AND BUOY OBS
 
 
 
STATION/POSITION TIME TEMP WIND PRES VSBY WAVE  
AIR SEA DIR/SP/G HT/PER  
(UTC) (F) (DEG/KT/KT) (MB) (MI) (FT/S)  
KEATON BEACH 1200 84 260/ 11/ 12 1016.2R  
CEDAR KEY 1200 84 260/ 8/ 11 1016.7R  
C TOWER 1200 82 280/ 16/ 18 1016.4R  
APALACHICOLA BUO NOT AVBL  
PANAMA CITY BUOY 1150 84 85 250/ 12/ 14 1015.7S 2/ 6  
MOBILE BUOY 1200 84 280/ 17/ 19 1016.3  
ORANGE BCH AL BU 1200 81 300/ 12/ 14 1016.5  

 
 
 
CLICK HERE TO GO TO PREVIOUS BULLETINS.

The Nexlab FL Page
The Nexlab GA Page
The Nexlab AL Page Main Text Page